Showing default

SJ-12, 36596

Orbit data source: Space-Track

SJ-12, 36596 is a payload satellite owned by CASC (CN) in SSO that was launched on Tue, 15 Jun 2010 UTC via a CHANG ZHENG 2D launch vehicle from the Jiuquan Satellite Launch Center, China (JSC). Payload-class satellites include a variety of spacecraft equipped with specific instruments for various scientific and technological missions. These include communications satellites like Starlink; space stations such as the ISS; scientific satellites like the Hubble; Earth observation satellites from companies like Planet Labs, Umbra, and HawkEye 360; GPS; miniature CubeSats for education and research; and military/defense satellites.

Loading next visibility...
Identifier
36596, 2010-027A
Orbit
SSO
Country
Flag of CNCN / PRC
Related business
Manufacturer
SAST
Mission
Operational Civil Science
Bus & Motor
FY-1?, Unknown motor
Mass
~1,000 kg wet, ~1,000 kg dry
Launch date (UTC)
2010-06-15 (16 years ago)
Launch vehicle
CHANG ZHENG 2D
Launch site
Jiuquan Satellite Launch Center, China (JSC)
Object type
Payload
Rocket body
Debris
Shape & HBR
Box + 2 Pan, 4.3 m
Radar Cross Section
5.659 m², Large (>1 m²)

Expand to show TLE details & history
Last TLE update: 9 hours ago

TLE from 9 hours ago
0 SJ-12
1 36596U 10027A   26126.29322392  .00004263  00000-0  22340-3 0  9997
2 36596  97.7642 143.0017 0005243 230.3258 129.7512 15.16347119868512
Epoch: 2026-05-06T07:02Z
TLE epoch observation values (Epoch: 2026-05-06T07:02:14.546Z)
Latitude
-0.00005°
Longitude
173.2853°
Altitude
522.28 km
Speed
7.601 km/s
True Right ascension
09h 32m 00s
True Declination
0° 00' 00"
Sunlit
Object was in daylight at epoch
Visualization orbit readout
Latitude
Unknown
Longitude
Unknown
Altitude
Unknown
Speed
Unknown
Apparent Right ascension
Unknown
Apparent Declination
Unknown
Sunlit
N/A
Visualization observer readout
Local Sidereal Time
23:36:09
Azimuth
Unknown
Elevation
Unknown
Doppler factor
Unknown
Orbital elements
Apogee altitude
517.492 km
Perigee altitude
510.265 km
Semi-major axis
6,892.015 km
Eccentricity
0.00052
Inclination
97.7642°
RAAN
143.0017°
Arg. of periapsis
230.3258°
True anomaly
129.79737°
Mean anomaly
129.7512°
Eccentric anomaly
129.77429°
Mean motion
3.79336 °/min
Orbital period
94.9 mins
BSTAR
0.0002234
Loading maneuver chart data...
Computing Atmospheric mass density...
Loading historical data...
Loading historical data...
Loading historical data...
Loading historical data...
Loading historical data...
Loading historical data...
Loading historical data...

Documentation

Showing up to 5 results
|